Weather History for Spokane Fairchild, WA

Change the Weather History Date:

Monday, April 21, 2014

  Actual Average Record
Temperature  
Mean Temperature 46 °F -  
Max Temperature 57 °F 56 °F 75 °F (2009)
Min Temperature 35 °F 35 °F 26 °F (2008)
Degree Days  
Heating Degree Days 19    
Moisture  
Dew Point 34 °F    
Average Humidity 62    
Maximum Humidity 82    
Minimum Humidity 46    
Precipitation  
Precipitation 0.00 in - - ()
Sea Level Pressure  
Sea Level Pressure 30.01 in    
Wind  
Wind Speed 9 mph (NE)    
Max Wind Speed 14 mph    
Max Gust Speed -    
Visibility 10 miles    
Events      
Averages and records for this station are not official NWS values.
T = Trace of Precipitation, MM = Missing Value Source: NWS Daily Summary

Daily Weather History Graph

Daily Weather History Graph

Search for Another Location

Airport:

Trip Planner

Search our weather history database for the weather conditions in past years. The results will help you decide how hot, cold, wet, or windy it might be!

Date:

Astronomy

Apr. 21, 2014 Rise Set
Actual Time 5:50 AM PDT 7:48 PM PDT
Civil Twilight 5:17 AM PDT 8:22 PM PDT
Nautical Twilight 4:36 AM PDT 9:03 PM PDT
Astronomical Twilight 3:51 AM PDT 9:48 PM PDT
Moon 1:28 AM PDT (4/21) 11:17 AM PDT (4/21)
Length of Visible Light 15h 04m
Length of Day
13h 58m
Waning Gibbous, 56% of the Moon is Illuminated
Apr 21
Waning Gibbous
Apr 22
Last Quarter
Apr 28
New
May 6
First Quarter
May 14
Full

Hourly Weather History & Observations

Time (PDT) Temp. Windchill Dew Point Humidity Pressure Visibility Wind Dir Wind Speed Gust Speed Precip Events Conditions
12:58 AM 41.9 °F 39.0 °F 28.8 °F 60% 30.21 in 10.0 mi NNE 4.6 mph - 0.00 in   Clear
1:58 AM 36.3 °F 30.1 °F 30.6 °F 80% 30.20 in 10.0 mi East 8.1 mph - 0.00 in   Clear
2:58 AM 35.4 °F 29.0 °F 30.6 °F 82% 30.17 in 10.0 mi NE 8.1 mph - N/A   Clear
3:58 AM 37.6 °F 31.6 °F 31.1 °F 77% 30.16 in 10.0 mi ENE 8.1 mph - N/A   Clear
4:58 AM 36.7 °F 29.4 °F 31.3 °F 81% 30.15 in 10.0 mi ENE 10.4 mph - N/A   Clear
5:58 AM 36.5 °F 30.3 °F 31.5 °F 82% 30.14 in 10.0 mi ENE 8.1 mph - N/A   Partly Cloudy
6:58 AM 38.3 °F 30.5 °F 31.5 °F 76% 30.11 in 10.0 mi NE 12.7 mph - N/A   Clear
7:58 AM 40.5 °F 32.8 °F 31.6 °F 71% 30.09 in 10.0 mi NE 13.8 mph - N/A   Clear
8:58 AM 42.4 °F 38.1 °F 31.6 °F 66% 30.11 in 10.0 mi North 6.9 mph - N/A   Mostly Cloudy
9:06 AM 42.8 °F 37.5 °F 32.0 °F 66% 30.08 in 10.0 mi NNW 9.2 mph - N/A   Scattered Clouds
9:20 AM 42.8 °F 37.5 °F 32.0 °F 66% 30.07 in 10.0 mi NNE 9.2 mph - N/A   Mostly Cloudy
9:58 AM 46.6 °F - 32.9 °F 59% 30.07 in 10.0 mi ENE 12.7 mph - 0.00 in   Partly Cloudy
10:58 AM 49.5 °F - 32.9 °F 53% 30.06 in 10.0 mi ENE 13.8 mph - N/A   Overcast
11:58 AM 51.3 °F - 34.7 °F 53% 30.05 in 10.0 mi NE 10.4 mph - N/A   Mostly Cloudy
12:58 PM 53.4 °F - 36.0 °F 52% 30.01 in 10.0 mi NE 12.7 mph - N/A   Partly Cloudy
1:58 PM 54.9 °F - 36.3 °F 50% 30.01 in 10.0 mi ENE 8.1 mph - N/A   Scattered Clouds
2:58 PM 56.3 °F - 35.8 °F 46% 29.98 in 10.0 mi NE 11.5 mph - N/A   Mostly Cloudy
3:58 PM 57.2 °F - 37.2 °F 47% 29.96 in 10.0 mi NE 10.4 mph - N/A   Scattered Clouds
4:58 PM 57.0 °F - 36.7 °F 47% 29.92 in 10.0 mi NE 12.7 mph - N/A   Overcast
5:58 PM 56.8 °F - 37.8 °F 49% 29.90 in 10.0 mi NE 10.4 mph - N/A   Overcast
6:58 PM 56.7 °F - 37.8 °F 49% 29.86 in 10.0 mi NE 12.7 mph - N/A   Scattered Clouds
7:58 PM 54.3 °F - 38.1 °F 54% 29.84 in 10.0 mi NE 11.5 mph - N/A   Mostly Cloudy
8:58 PM 52.0 °F - 38.1 °F 59% 29.82 in 10.0 mi NE 12.7 mph - N/A   Clear
9:58 PM 51.8 °F - 37.6 °F 58% 29.78 in 10.0 mi NE 11.5 mph - N/A   Partly Cloudy
10:58 PM 49.8 °F - 37.4 °F 62% 29.75 in 10.0 mi NE 10.4 mph - N/A   Overcast
11:58 PM 47.8 °F - 37.2 °F 67% 29.73 in 10.0 mi NNW 10.4 mph - N/A   Overcast